Weather reports worldwide

Advertisment
Tampico/Tamps, Mexico (76548): temperature & dewpoint: 15.05.2019 10:00:00 - 21.05.2019 10:00:00 (CDT)Tampico/Tamps, Mexico (76548): wind speed: 15.05.2019 10:00:00 - 21.05.2019 10:00:00 (CDT)Tampico/Tamps, Mexico (76548): wind direction: 15.05.2019 10:00:00 - 21.05.2019 10:00:00 (CDT)Tampico/Tamps, Mexico (76548): reduced air pressure: 15.05.2019 10:00:00 - 21.05.2019 10:00:00 (CDT)Tampico/Tamps, Mexico (76548): visibility: 15.05.2019 10:00:00 - 21.05.2019 10:00:00 (CDT)
Date & Time tt [°C] td [°C] ff [km/h] ff [kn] dd ppp [hPa] vv [km]
21.05.2019 10:00:00 29,4 25,4 4 2 SE 1006,9 20
21.05.2019 09:00:00 - - - - - - -
21.05.2019 08:00:00 - - - - - - -
21.05.2019 07:00:00 26,2 23,7 7 4 E 1006,1 10
21.05.2019 06:00:00 - - - - - - -
21.05.2019 05:00:00 - - - - - - -
21.05.2019 04:00:00 27,2 24,2 11 6 ESE 1007,4 10
21.05.2019 03:00:00 - - - - - - -
21.05.2019 02:00:00 - - - - - - -
21.05.2019 01:00:00 27,6 24,9 18 10 ESE 1008,5 10
21.05.2019 00:00:00 - - - - - - -
20.05.2019 23:00:00 - - - - - - -
20.05.2019 22:00:00 28,0 25,0 18 10 ESE 1007,7 10
20.05.2019 21:00:00 - - - - - - -
20.05.2019 20:00:00 - - - - - - -
20.05.2019 19:00:00 32,0 25,6 14 8 SE 1006,3 16
20.05.2019 18:00:00 - - - - - - -
20.05.2019 17:00:00 - - - - - - -
20.05.2019 16:00:00 36,4 27,3 11 6 SE 1007,9 20
20.05.2019 15:00:00 - - - - - - -
20.05.2019 14:00:00 - - - - - - -
20.05.2019 13:00:00 34,2 25,4 7 4 SE 1010,5 18
20.05.2019 12:00:00 - - - - - - -
20.05.2019 11:00:00 - - - - - - -
20.05.2019 10:00:00 31,0 26,9 7 4 E 1011,3 18
20.05.2019 09:00:00 - - - - - - -
20.05.2019 08:00:00 - - - - - - -
20.05.2019 07:00:00 27,0 24,3 4 2 E 1011,2 10
20.05.2019 06:00:00 - - - - - - -
20.05.2019 05:00:00 - - - - - - -
20.05.2019 04:00:00 27,4 24,7 4 2 SE 1010,9 10
20.05.2019 03:00:00 - - - - - - -
20.05.2019 02:00:00 - - - - - - -
20.05.2019 01:00:00 27,8 24,5 4 2 SE 1010,5 10
20.05.2019 00:00:00 - - - - - - -
19.05.2019 23:00:00 - - - - - - -
19.05.2019 22:00:00 28,2 25,3 11 6 E 1009,0 10
19.05.2019 21:00:00 - - - - - - -
19.05.2019 20:00:00 - - - - - - -
19.05.2019 19:00:00 30,2 24,8 18 10 ESE 1006,3 20
19.05.2019 18:00:00 - - - - - - -
19.05.2019 17:00:00 - - - - - - -
19.05.2019 16:00:00 34,0 25,2 18 10 ESE 1007,4 22
19.05.2019 15:00:00 - - - - - - -
19.05.2019 14:00:00 - - - - - - -
19.05.2019 13:00:00 34,8 25,8 7 4 E 1009,1 22
19.05.2019 12:00:00 - - - - - - -
19.05.2019 11:00:00 - - - - - - -
19.05.2019 10:00:00 29,2 25,5 4 2 E 1009,7 18
19.05.2019 09:00:00 - - - - - - -
19.05.2019 08:00:00 - - - - - - -
19.05.2019 07:00:00 27,4 24,7 4 2 E 1007,7 10
19.05.2019 06:00:00 - - - - - - -
19.05.2019 05:00:00 - - - - - - -
19.05.2019 04:00:00 27,2 24,8 7 4 ESE 1006,5 10
19.05.2019 03:00:00 - - - - - - -
19.05.2019 02:00:00 - - - - - - -
19.05.2019 01:00:00 27,2 24,8 14 8 ESE 1006,5 10
19.05.2019 00:00:00 - - - - - - -
18.05.2019 23:00:00 - - - - - - -
18.05.2019 22:00:00 28,0 24,5 14 8 ESE 1004,8 10
18.05.2019 21:00:00 - - - - - - -
18.05.2019 20:00:00 - - - - - - -
18.05.2019 19:00:00 33,8 27,3 11 6 SE 1002,6 18
18.05.2019 18:00:00 - - - - - - -
18.05.2019 17:00:00 - - - - - - -
18.05.2019 16:00:00 36,2 27,7 7 4 E 1004,3 18
18.05.2019 15:00:00 - - - - - - -
18.05.2019 14:00:00 - - - - - - -
18.05.2019 13:00:00 35,8 28,6 7 4 SE 1007,8 18
18.05.2019 12:00:00 - - - - - - -
18.05.2019 11:00:00 - - - - - - -
18.05.2019 10:00:00 30,8 27,4 4 2 SE 1008,7 15
18.05.2019 09:00:00 - - - - - - -
18.05.2019 08:00:00 - - - - - - -
18.05.2019 07:00:00 27,4 25,5 4 2 E 1009,0 12
18.05.2019 06:00:00 - - - - - - -
18.05.2019 05:00:00 - - - - - - -
18.05.2019 04:00:00 - - - - - - -
18.05.2019 03:00:00 - - - - - - -
18.05.2019 02:00:00 - - - - - - -
18.05.2019 01:00:00 27,6 24,9 11 6 SE 1009,7 10
18.05.2019 00:00:00 - - - - - - -
17.05.2019 23:00:00 - - - - - - -
17.05.2019 22:00:00 27,6 24,3 11 6 SE 1008,8 10
17.05.2019 21:00:00 - - - - - - -
17.05.2019 20:00:00 - - - - - - -
17.05.2019 19:00:00 31,0 24,5 22 12 SE 1006,4 18
17.05.2019 18:00:00 - - - - - - -
17.05.2019 17:00:00 - - - - - - -
17.05.2019 16:00:00 36,4 28,7 18 10 ESE 1007,1 22
17.05.2019 15:00:00 - - - - - - -
17.05.2019 14:00:00 - - - - - - -
17.05.2019 13:00:00 34,2 26,6 7 4 SE 1010,1 22
17.05.2019 12:00:00 - - - - - - -
17.05.2019 11:00:00 - - - - - - -
17.05.2019 10:00:00 29,8 25,2 4 2 SE 1012,2 20
17.05.2019 09:00:00 - - - - - - -
17.05.2019 08:00:00 - - - - - - -
17.05.2019 07:00:00 25,8 23,6 4 2 ESE 1011,4 10
17.05.2019 06:00:00 - - - - - - -
17.05.2019 05:00:00 - - - - - - -
17.05.2019 04:00:00 26,2 23,7 4 2 E 1012,5 10
17.05.2019 03:00:00 - - - - - - -
17.05.2019 02:00:00 - - - - - - -
17.05.2019 01:00:00 27,2 24,8 7 4 ESE 1014,3 10
17.05.2019 00:00:00 - - - - - - -
16.05.2019 23:00:00 - - - - - - -
16.05.2019 22:00:00 27,8 24,0 11 6 ESE 1013,2 10
16.05.2019 21:00:00 - - - - - - -
16.05.2019 20:00:00 - - - - - - -
16.05.2019 19:00:00 30,8 25,5 7 4 E 1010,9 20
16.05.2019 18:00:00 - - - - - - -
16.05.2019 17:00:00 - - - - - - -
16.05.2019 16:00:00 36,2 28,5 11 6 E 1012,2 22
16.05.2019 15:00:00 - - - - - - -
16.05.2019 14:00:00 - - - - - - -
16.05.2019 13:00:00 33,8 27,3 7 4 ENE 1014,4 22
16.05.2019 12:00:00 - - - - - - -
16.05.2019 11:00:00 - - - - - - -
16.05.2019 10:00:00 29,2 22,6 7 4 NE 1015,9 22
16.05.2019 09:00:00 - - - - - - -
16.05.2019 08:00:00 - - - - - - -
16.05.2019 07:00:00 25,2 22,7 4 2 NE 1015,2 10
16.05.2019 06:00:00 - - - - - - -
16.05.2019 05:00:00 - - - - - - -
16.05.2019 04:00:00 26,4 23,7 4 2 NE 1015,3 10
16.05.2019 03:00:00 - - - - - - -
16.05.2019 02:00:00 - - - - - - -
16.05.2019 01:00:00 26,4 23,7 7 4 NE 1016,0 10
16.05.2019 00:00:00 - - - - - - -
15.05.2019 23:00:00 - - - - - - -
15.05.2019 22:00:00 26,6 23,0 11 6 ENE 1015,6 10
15.05.2019 21:00:00 - - - - - - -
15.05.2019 20:00:00 - - - - - - -
15.05.2019 19:00:00 29,8 24,4 11 6 E 1011,8 22
15.05.2019 18:00:00 - - - - - - -
15.05.2019 17:00:00 - - - - - - -
15.05.2019 16:00:00 31,4 23,8 18 10 ENE 1012,8 22
15.05.2019 15:00:00 - - - - - - -
15.05.2019 14:00:00 - - - - - - -
15.05.2019 13:00:00 32,0 24,5 11 6 ESE 1015,1 22
15.05.2019 12:00:00 - - - - - - -
15.05.2019 11:00:00 - - - - - - -
15.05.2019 10:00:00 28,2 24,1 11 6 E 1015,2 22

tt = temperature
td = dewpoint
ff = wind speed
dd = wind direction
ppp = reduced air pressure
vv = visibility

Next stations